This is the latest recevied weather packets stored in our database for station/object W4KBW. If no packets are shown the sender has not sent any weather packets the latest 10 day(s).
| Time | Temp. | Humidity | Pressure | Rain* | Wind** | Luminosity | Snow |
|---|---|---|---|---|---|---|---|
| 1777597083 | 27.78° C | 100% | 1009.2 hPa | 0 mm | - | - | - |
| 1777596153 | 28.33° C | 100% | 1009 hPa | 0 mm | - | - | - |
| 1777595420 | 28.33° C | 100% | 1008.6 hPa | 0 mm | - | - | - |
| 1777595253 | 28.33° C | 100% | 1008.6 hPa | 0 mm | - | - | - |
| 1777594353 | 28.89° C | 100% | 1008.5 hPa | 0 mm | - | - | - |
| 1777593619 | 28.89° C | 100% | 1008.3 hPa | 0 mm | - | - | - |
| 1777593527 | 28.89° C | 100% | 1008.3 hPa | 0 mm | - | - | - |
| 1777593453 | 28.89° C | 100% | 1008.3 hPa | 0 mm | - | - | - |
| 1777592553 | 29.44° C | 100% | 1008 hPa | 0 mm | - | - | - |
| 1777591623 | 29.44° C | 100% | 1007.9 hPa | 0 mm | - | - | - |
| 1777590765 | 30° C | 100% | 1007.7 hPa | 0 mm | - | - | - |
| 1777590693 | 30° C | 100% | 1007.7 hPa | 0 mm | - | - | - |
| 1777589844 | 30° C | 100% | 1007.7 hPa | 0 mm | - | - | - |
| 1777589793 | 30° C | 100% | 1007.7 hPa | 0 mm | - | - | - |
| 1777588893 | 30.56° C | 100% | 1007.5 hPa | 0 mm | - | - | - |
| 1777588049 | 31.11° C | 100% | 1007.7 hPa | 0 mm | - | - | - |
| 1777587993 | 31.11° C | 100% | 1007.7 hPa | 0 mm | - | - | - |
| 1777587149 | 31.11° C | 100% | 1007.4 hPa | 0 mm | - | - | - |
| 1777587063 | 31.11° C | 100% | 1007.4 hPa | 0 mm | - | - | - |
| 1777586233 | 31.11° C | 100% | 1007.5 hPa | 0 mm | - | - | - |
| 1777586163 | 31.11° C | 100% | 1007.5 hPa | 0 mm | - | - | - |
| 1777585309 | 32.22° C | 100% | 1007.4 hPa | 0 mm | - | - | - |
| 1777585233 | 32.22° C | 100% | 1007.4 hPa | 0 mm | - | - | - |
| 1777584403 | 32.78° C | 100% | 1007.4 hPa | 0 mm | - | - | - |
| 1777584333 | 32.78° C | 100% | 1007.4 hPa | 0 mm | - | - | - |
* Rain latest hour (hover to see other rain measurements)
** Current wind speed in m/s (hover to see current wind gust speed)